Location: *
(45.9500°N, 9.0833°E)
Time: 17:14:44
(UTC+00:00)

Meteor 1-5 Rocket - Pass Details

Date: 03 March 2021
Orbit: 790 x 914 km, 81.2° (Epoch: 14 April)

Event Time Altitude Azimuth Distance (km) Brightness Sun altitude
Rises 18:30:14 0° 177° (S) 3,284 7.2 -14.2°
Reaches altitude 10° 18:32:37 10° 173° (S) 2,368 6.4 -14.6°
Maximum altitude 18:37:50 58° 95° (E) 950 4.1 -15.5°
Drops below altitude 10° 18:43:14 10° 18° (NNE) 2,450 6.5 -16.4°
Sets 18:45:43 0° 15° (NNE) 3,407 7.3 -16.9°
